Temp
9 8 8 8 8 8 9 9 10 10 10 12 13 11 10 13 14 13 14 14 14 14
8 8 8 8 8 8 8 9 10 10 10 10 11 12 10 12 12 13 13 13 13 14
8 8 7 8 7 7 8 9 9 9 10 10 9 10 12 12 13 13 13 13 13 13
9 8 7 7 7 7 7 8 8 9 9 10 10 11 13 13 13 13 13 12 12 12
9 8 7 7 7 7 7 7 8 8 9 9 10 11 12 12 12 12 12 12 11 11
9 8 8 7 7 7 7 8 8 8 8 8 9 10 11 12 12 11 11 12 12 11
9 9 8 8 7 8 7 7 8 8 8 8 9 10 11 11 11 11 11 11 11 11
9 9 8 8 8 7 7 7 7 7 9 8 8 9 9 10 10 10 10 10 10 10
9 9 8 8 7 7 7 7 7 7 8 8 8 8 9 10 10 10 10 10 9 9
8 8 8 8 8 8 7 7 7 7 7 8 8 8 9 9 9 9 8 9 8 9
8 7 8 7 7 8 8 8 8 8 8 8 8 8 8 8 8 8 8 8 7 7
7 7 7 6 6 6 7 7 7 7 7 7 7 7 7 7 7 7 6 6 6 6
7 6 6 5 5 5 5 5 5 5 5 6 6 6 6 6 6 5 5 5 5 5
6 6 5 5 4 4 4 4 3 3 3 4 4 5 5 5 5 5 4 3 3 4
Height
715 713 713 713 712 716 718 721 725 728 729 731 733 747 762 762 765 771 778 784 790 795
711 710 709 708 707 712 714 716 721 722 726 729 733 737 753 755 761 770 777 783 786 793
709 708 707 707 710 711 711 713 716 719 722 727 733 734 748 755 763 770 777 781 786 792
708 707 708 705 711 712 711 713 715 719 722 726 732 736 742 754 764 770 774 781 786 789
707 708 708 709 711 713 716 717 718 720 725 728 733 738 745 756 764 769 774 778 782 787
705 706 708 710 712 716 719 721 723 726 728 732 738 744 749 754 762 768 773 776 780 786
703 704 705 708 712 716 720 725 730 731 735 740 744 747 752 757 762 768 772 776 779 785
704 705 705 707 710 716 722 726 730 734 737 743 749 753 756 760 765 769 771 775 780 784
706 705 706 708 711 716 721 725 730 734 740 743 748 752 757 760 762 765 770 774 779 783
710 710 710 711 713 717 721 726 731 734 738 744 747 752 755 758 762 767 772 775 779 782
717 717 715 716 717 719 723 727 730 734 738 742 745 750 754 757 762 766 769 772 776 779
725 724 723 723 723 725 725 728 732 736 739 741 744 748 753 758 760 764 768 771 775 778
730 731 731 731 731 733 730 732 735 738 741 743 746 750 754 758 760 763 767 771 775 779
737 737 737 737 736 737 736 739 741 742 746 748 753 756 758 761 763 766 770 775 778 782
Wind_Speed
23 24 25 27 23 24 27 28 30 26 29 37 41 37 37 41 40 40 40 39 31 25
17 19 20 21 22 20 23 25 30 28 32 31 36 39 37 34 35 38 40 38 31 26
14 17 15 16 19 19 16 19 20 19 28 30 30 35 37 33 32 32 30 29 29 25
16 14 15 14 18 19 12 15 16 18 14 19 25 28 25 26 25 26 24 24 26 24
18 16 14 19 15 19 17 14 15 15 17 12 15 19 23 25 25 26 24 23 23 22
19 21 20 22 22 17 21 17 17 17 17 12 10 15 19 20 23 23 23 21 20 20
15 19 20 22 23 25 20 27 25 17 16 15 13 12 13 16 17 19 20 21 20 21
3 9 16 19 23 26 28 29 28 29 22 15 15 12 12 17 19 20 18 17 16 16
9 6 12 18 21 24 23 24 27 26 34 25 15 14 16 14 14 14 16 18 19 20
15 13 11 12 19 21 21 19 21 22 24 28 21 19 20 21 23 23 22 20 19 19
15 15 15 15 14 16 17 17 16 15 17 22 21 21 21 20 20 20 19 18 20 22
15 17 18 18 17 16 18 18 14 11 12 15 18 19 20 20 20 21 19 16 15 18
16 16 18 17 19 21 25 26 25 23 20 19 17 13 14 15 17 18 15 11 10 10
15 17 17 18 20 22 25 28 28 29 27 25 20 17 14 13 16 19 19 17 16 14
Wind_Direction
254 230 221 213 208 208 209 206 209 198 184 182 181 196 199 191 193 189 190 187 185 180
241 227 216 196 199 194 193 195 195 187 188 184 185 187 195 184 184 193 194 190 184 185
252 229 205 191 182 170 165 171 166 161 168 174 176 175 190 188 193 193 196 196 196 196
240 237 211 180 191 189 156 143 149 166 157 151 169 170 171 186 192 193 194 200 202 205
235 221 209 199 187 198 180 156 130 137 160 154 152 165 175 184 188 190 194 198 198 202
220 219 212 200 190 188 190 166 152 133 126 127 153 173 172 176 185 191 193 192 192 194
218 213 218 204 193 199 186 181 177 174 169 161 160 165 175 189 187 195 198 200 201 201
116 190 205 196 181 187 193 190 187 191 188 204 198 203 201 198 196 194 190 194 197 197
69 83 159 164 166 179 187 193 201 193 186 215 209 208 205 196 187 187 190 184 187 191
58 68 82 150 168 167 174 179 184 189 194 208 207 213 203 195 190 185 186 188 191 188
67 72 76 90 116 157 158 161 161 167 179 192 200 197 197 194 196 197 199 201 205 199
75 80 83 83 89 104 130 148 151 164 192 196 203 204 199 196 193 192 195 194 203 207
82 86 89 95 97 101 103 101 110 105 102 107 113 141 160 170 161 144 137 142 150 171
94 97 99 100 103 102 99 101 97 94 89 90 89 97 115 129 133 131 126 121 118 121